Ahwaz, Iran

2:05 AM +0330 on November 23, 2017 (GMT +0330)
Ahwaz

Weather History for OIAW - April, 2013

Change the Weather History Date:

Saturday, April 27, 2013

  Actual Average Record
Temperature  
Mean Temperature 75 °F -  
Max Temperature 91 °F - - ()
Min Temperature 59 °F - - ()
Cooling Degree Days 10    
Growing Degree Days 25 (Base 50)    
Moisture  
Dew Point 42 °F    
Average Humidity 29    
Maximum Humidity 63    
Minimum Humidity 8    
Precipitation  
Precipitation 0.00 in - - ()
Sea Level Pressure  
Sea Level Pressure 29.90 in    
Wind  
Wind Speed 2 mph ()    
Max Wind Speed 9 mph    
Max Gust Speed -    
Visibility 6.0 miles    
Events      
T = Trace of Precipitation, MM = Missing Value Source: Averaged Metar Reports

Daily Weather History Graph

Daily Weather History Graph

Search for Another Location

Airport or City:

Trip Planner

Search our weather history database for the weather conditions in past years. The results will help you decide how hot, cold, wet, or windy it might be!

Date:

Astronomy

Apr. 27, 2013 Rise Set
Actual Time 6:34 AM +0430 7:51 PM +0430
Civil Twilight 6:08 AM +0430 8:17 PM +0430
Nautical Twilight 5:38 AM +0430 8:47 PM +0430
Astronomical Twilight 5:07 AM +0430 9:19 PM +0430
Moon 9:49 PM +0430 (4/27) 7:37 AM +0430 (4/27)
Length of Visible Light 14h 08m
Length of Day
13h 17m
Full, 97% of the Moon is Illuminated
Apr 27
Full
May 2
Last Quarter
May 10
New
May 18
First Quarter
May 25
Full

Hourly Weather History & Observations

Time (+0430) Temp. Dew Point Humidity Pressure Visibility Wind Dir Wind Speed Gust Speed Precip Events Conditions
12:20 AM 73.4 °F 39.2 °F 29% 29.89 in - Calm Calm - N/A   Clear
12:30 AM 73.4 °F 39.2 °F 29% 29.89 in - Calm Calm - N/A   Clear
1:30 AM 73.4 °F 37.4 °F 27% 29.89 in - NW 4.6 mph - N/A   Clear
2:30 AM 71.6 °F 37.4 °F 29% 29.89 in - ESE 4.6 mph - N/A   Clear
3:30 AM 66.2 °F 44.6 °F 46% 29.89 in - Calm Calm - N/A   Clear
4:30 AM 63 °F 45 °F 41% 29.91 in 6 mi Calm Calm - -  
4:30 AM 62.6 °F 44.6 °F 52% 29.89 in - Calm Calm - N/A   Clear
5:30 AM 60.8 °F 44.6 °F 55% 29.89 in - Calm Calm - N/A   Clear
6:30 AM 59.0 °F 46.4 °F 63% 29.89 in - Calm Calm - N/A   Clear
7:30 AM 59.0 °F 46.4 °F 63% 29.92 in - North 4.6 mph - N/A   Clear
8:00 AM 66.2 °F 48.2 °F 52% 29.92 in - Calm Calm - N/A   Clear
8:20 AM 68.0 °F 46.4 °F 46% 29.92 in - Calm Calm - N/A   Clear
8:30 AM 68.0 °F 46.4 °F 46% 29.92 in - Calm Calm - N/A   Clear
9:00 AM 71.6 °F 48.2 °F 43% 29.92 in - Calm Calm - N/A   Clear
9:20 AM 73.4 °F 48.2 °F 41% 29.95 in - Calm Calm - N/A   Clear
9:30 AM 73.4 °F 48.2 °F 41% 29.95 in - Calm Calm - N/A   Clear
9:58 AM 75.2 °F 50.0 °F 41% 29.95 in - Calm Calm - N/A   Clear
10:20 AM 77.0 °F 51.8 °F 41% 29.95 in - South 4.6 mph - N/A   Clear
10:30 AM 77.0 °F 51.8 °F 41% 29.95 in - South 4.6 mph - N/A   Clear
10:58 AM 78.8 °F 51.8 °F 39% 29.95 in - SSE 4.6 mph - N/A   Clear
11:20 AM 80.6 °F 50.0 °F 34% 29.95 in - SSE 4.6 mph - N/A   Clear
11:30 AM 80.6 °F 50.0 °F 34% 29.95 in - SSE 4.6 mph - N/A   Clear
12:20 PM 86.0 °F 46.4 °F 25% 29.95 in - SSW 4.6 mph - N/A   Clear
1:00 PM 87.8 °F 46.4 °F 24% 29.95 in - Calm Calm - N/A   Clear
1:20 PM 87.8 °F 39.2 °F 18% 29.92 in - West 4.6 mph - N/A   Clear
1:30 PM 87.8 °F 39.2 °F 18% 29.92 in - West 4.6 mph - N/A   Clear
2:00 PM 89.6 °F 39.2 °F 17% 29.92 in - WSW 9.2 mph - N/A   Clear
2:20 PM 89.6 °F 37.4 °F 16% 29.92 in - SSW 9.2 mph - N/A   Clear
2:30 PM 89.6 °F 37.4 °F 16% 29.92 in - SSW 9.2 mph - N/A   Clear
3:00 PM 89.6 °F 37.4 °F 16% 29.92 in - WNW 4.6 mph - N/A   Clear
3:20 PM 89.6 °F 35.6 °F 15% 29.89 in - Calm Calm - N/A   Clear
3:30 PM 89.6 °F 35.6 °F 15% 29.89 in - Calm Calm - N/A   Clear
4:00 PM 89.6 °F 35.6 °F 15% 29.89 in - WSW 2.3 mph - N/A   Clear
4:20 PM 91.4 °F 37.4 °F 15% 29.86 in - West 4.6 mph - N/A   Clear
4:30 PM 91 °F 38 °F 8% 29.88 in 6 mi West 4.5 mph - -   Clear
4:30 PM 91.4 °F 37.4 °F 15% 29.86 in - West 4.6 mph - N/A   Clear
5:00 PM 91.4 °F 37.4 °F 15% 29.86 in - SW 6.9 mph - N/A   Clear
5:20 PM 91.4 °F 35.6 °F 14% 29.86 in - WSW 6.9 mph - N/A   Clear
5:30 PM 91.4 °F 35.6 °F 14% 29.86 in - WSW 6.9 mph - N/A   Clear
6:00 PM 89.6 °F 37.4 °F 16% 29.86 in - SW 9.2 mph - N/A   Clear
6:20 PM 89.6 °F 35.6 °F 15% 29.86 in - Calm Calm - N/A   Clear
6:30 PM 89.6 °F 35.6 °F 15% 29.86 in - Calm Calm - N/A   Clear
7:00 PM 87.8 °F 35.6 °F 16% 29.86 in - SW 2.3 mph - N/A   Clear
7:20 PM 87.8 °F 42.8 °F 21% 29.86 in - SSW 4.6 mph - N/A   Clear
7:30 PM 87.8 °F 42.8 °F 21% 29.86 in - SSW 4.6 mph - N/A   Clear
8:30 PM 84.2 °F 41.0 °F 22% 29.86 in - WSW 4.6 mph - N/A   Clear
9:20 PM 82.4 °F 44.6 °F 26% 29.89 in - WSW 4.6 mph - N/A   Clear
9:30 PM 82.4 °F 44.6 °F 26% 29.89 in - WSW 4.6 mph - N/A   Clear
10:30 PM 80 °F 46 °F 20% 29.92 in 6 mi WSW 4.5 mph - -   Clear
10:30 PM 78.8 °F 46.4 °F 32% 29.92 in - WSW 4.6 mph - N/A   Clear
11:30 PM 77.0 °F 46.4 °F 34% 29.92 in - West 4.6 mph - N/A   Clear